Time,TemperatureF,DewpointF,PressureIn,WindDirection,WindDirectionDegrees,WindSpeedMPH,WindSpeedGustMPH,Humidity,HourlyPrecipIn,Conditions,Clouds,dailyrainin,SoftwareType,DateUTC
2013-10-03 00:05:00,53.4,49.3,30.07,SE,146,0.0,0.0,86,0.00,,,0.00,Wunderground v.1.15,2013-10-03 04:05:00,
2013-10-03 00:10:00,53.4,49.0,30.07,SE,146,0.0,0.0,85,0.00,,,0.00,Wunderground v.1.15,2013-10-03 04:10:00,
2013-10-03 00:15:00,53.2,48.8,30.07,SE,146,0.0,0.0,85,0.00,,,0.00,Wunderground v.1.15,2013-10-03 04:15:00,
2013-10-03 00:20:00,53.0,48.3,30.07,SE,146,0.0,0.0,84,0.00,,,0.00,Wunderground v.1.15,2013-10-03 04:20:00,
2013-10-03 00:30:00,52.9,48.2,30.07,SE,146,0.0,0.0,84,0.00,,,0.00,Wunderground v.1.15,2013-10-03 04:30:00,
2013-10-03 00:35:00,52.8,48.1,30.07,SE,146,0.0,0.0,84,0.00,,,0.00,Wunderground v.1.15,2013-10-03 04:35:00,
2013-10-03 00:45:00,52.6,48.2,30.06,SE,146,0.0,0.0,85,0.00,,,0.00,Wunderground v.1.15,2013-10-03 04:45:00,
2013-10-03 00:50:00,52.5,48.1,30.06,SE,142,0.0,0.0,85,0.00,,,0.00,Wunderground v.1.15,2013-10-03 04:50:00,
2013-10-03 00:55:00,52.4,48.0,30.06,SE,143,0.0,0.0,85,0.00,,,0.00,Wunderground v.1.15,2013-10-03 04:55:00,
2013-10-03 01:00:00,52.4,47.7,30.06,SE,143,0.0,0.0,84,0.00,,,0.00,Wunderground v.1.15,2013-10-03 05:00:00,
2013-10-03 01:05:00,52.4,47.7,30.06,SE,143,0.0,0.0,84,0.00,,,0.00,Wunderground v.1.15,2013-10-03 05:05:00,
2013-10-03 01:15:00,52.5,47.8,30.05,SE,141,0.0,0.0,84,0.00,,,0.00,Wunderground v.1.15,2013-10-03 05:15:00,
2013-10-03 01:20:00,52.5,47.8,30.05,SE,141,0.0,0.0,84,0.00,,,0.00,Wunderground v.1.15,2013-10-03 05:20:00,
2013-10-03 01:25:00,52.6,47.9,30.05,SE,142,0.0,0.0,84,0.00,,,0.00,Wunderground v.1.15,2013-10-03 05:25:00,
2013-10-03 01:30:00,52.5,47.8,30.05,SE,142,0.0,0.0,84,0.00,,,0.00,Wunderground v.1.15,2013-10-03 05:30:00,
2013-10-03 01:35:00,52.5,47.5,30.04,SE,141,0.0,0.0,83,0.00,,,0.00,Wunderground v.1.15,2013-10-03 05:35:00,
2013-10-03 01:45:00,52.6,47.9,30.04,SE,142,0.0,0.0,84,0.00,,,0.00,Wunderground v.1.15,2013-10-03 05:45:00,
2013-10-03 01:50:00,52.5,47.2,30.05,SE,141,0.0,0.0,82,0.00,,,0.00,Wunderground v.1.15,2013-10-03 05:50:00,
2013-10-03 01:55:00,52.5,47.2,30.05,SE,142,0.0,0.0,82,0.00,,,0.00,Wunderground v.1.15,2013-10-03 05:55:00,
2013-10-03 02:00:00,52.5,46.8,30.04,SE,142,0.0,0.0,81,0.00,,,0.00,Wunderground v.1.15,2013-10-03 06:00:00,
2013-10-03 02:05:00,52.4,46.7,30.04,SE,141,0.0,0.0,81,0.00,,,0.00,Wunderground v.1.15,2013-10-03 06:05:00,
2013-10-03 02:15:00,52.3,47.0,30.03,SE,142,0.0,0.0,82,0.00,,,0.00,Wunderground v.1.15,2013-10-03 06:15:00,
2013-10-03 02:20:00,52.4,47.1,30.04,SE,142,0.0,0.0,82,0.00,,,0.00,Wunderground v.1.15,2013-10-03 06:20:00,
2013-10-03 02:25:00,52.4,46.7,30.03,SE,142,0.0,0.0,81,0.00,,,0.00,Wunderground v.1.15,2013-10-03 06:25:00,
2013-10-03 02:30:00,52.4,46.4,30.03,SE,137,0.0,0.0,80,0.00,,,0.00,Wunderground v.1.15,2013-10-03 06:30:00,
2013-10-03 02:40:00,52.2,46.9,30.03,ESE,113,0.0,0.0,82,0.00,,,0.00,Wunderground v.1.15,2013-10-03 06:40:00,
2013-10-03 02:45:00,52.1,46.4,30.03,ESE,113,0.0,0.0,81,0.00,,,0.00,Wunderground v.1.15,2013-10-03 06:45:00,
2013-10-03 02:50:00,52.0,46.3,30.03,ESE,113,0.0,0.0,81,0.00,,,0.00,Wunderground v.1.15,2013-10-03 06:50:00,
2013-10-03 02:55:00,52.2,46.9,30.03,ESE,113,0.0,0.0,82,0.00,,,0.00,Wunderground v.1.15,2013-10-03 06:55:00,
2013-10-03 03:05:00,52.4,47.1,30.04,ESE,113,0.0,0.0,82,0.00,,,0.00,Wunderground v.1.15,2013-10-03 07:05:00,
2013-10-03 03:15:00,52.2,47.2,30.04,ESE,113,0.0,0.0,83,0.00,,,0.00,Wunderground v.1.15,2013-10-03 07:15:00,
2013-10-03 03:25:00,51.8,46.8,30.03,ESE,113,0.0,0.0,83,0.00,,,0.00,Wunderground v.1.15,2013-10-03 07:25:00,
2013-10-03 03:30:00,51.5,46.2,30.03,ESE,113,0.0,0.0,82,0.00,,,0.00,Wunderground v.1.15,2013-10-03 07:30:00,
2013-10-03 03:35:00,51.1,45.5,30.03,ESE,113,0.0,0.0,81,0.00,,,0.00,Wunderground v.1.15,2013-10-03 07:35:00,
2013-10-03 03:40:00,50.8,45.2,30.03,ESE,113,0.0,0.0,81,0.00,,,0.00,Wunderground v.1.15,2013-10-03 07:40:00,
2013-10-03 03:45:00,50.5,44.6,30.03,ESE,113,0.0,0.0,80,0.00,,,0.00,Wunderground v.1.15,2013-10-03 07:45:00,
2013-10-03 03:55:00,50.2,44.3,30.04,ESE,113,0.0,0.0,80,0.00,,,0.00,Wunderground v.1.15,2013-10-03 07:55:00,
2013-10-03 04:00:00,50.1,44.2,30.04,ESE,113,0.0,0.0,80,0.00,,,0.00,Wunderground v.1.15,2013-10-03 08:00:00,
2013-10-03 04:05:00,49.9,44.6,30.04,ESE,113,0.0,0.0,82,0.00,,,0.00,Wunderground v.1.15,2013-10-03 08:05:00,
2013-10-03 04:15:00,49.8,44.5,30.04,ESE,113,0.0,0.0,82,0.00,,,0.00,Wunderground v.1.15,2013-10-03 08:15:00,
2013-10-03 04:20:00,49.7,44.1,30.04,ESE,113,0.0,0.0,81,0.00,,,0.00,Wunderground v.1.15,2013-10-03 08:20:00,
2013-10-03 04:30:00,49.5,43.9,30.04,ESE,113,0.0,0.0,81,0.00,,,0.00,Wunderground v.1.15,2013-10-03 08:30:00,
2013-10-03 04:35:00,49.5,44.2,30.04,ESE,113,0.0,0.0,82,0.00,,,0.00,Wunderground v.1.15,2013-10-03 08:35:00,
2013-10-03 04:40:00,49.5,44.6,30.03,ESE,113,0.0,0.0,83,0.00,,,0.00,Wunderground v.1.15,2013-10-03 08:40:00,
2013-10-03 04:45:00,49.5,44.9,30.03,ESE,113,0.0,0.0,84,0.00,,,0.00,Wunderground v.1.15,2013-10-03 08:45:00,
2013-10-03 04:50:00,49.4,44.5,30.03,ESE,113,0.0,0.0,83,0.00,,,0.00,Wunderground v.1.15,2013-10-03 08:50:00,
2013-10-03 05:00:00,49.3,43.7,30.03,ESE,113,0.0,0.0,81,0.00,,,0.00,Wunderground v.1.15,2013-10-03 09:00:00,
2013-10-03 05:05:00,49.3,44.0,30.03,ESE,113,0.0,0.0,82,0.00,,,0.00,Wunderground v.1.15,2013-10-03 09:05:00,
2013-10-03 05:15:00,49.4,43.5,30.03,ESE,102,0.0,0.0,80,0.00,,,0.00,Wunderground v.1.15,2013-10-03 09:15:00,
2013-10-03 05:20:00,49.4,43.5,30.04,ESE,102,0.0,0.0,80,0.00,,,0.00,Wunderground v.1.15,2013-10-03 09:20:00,
2013-10-03 05:25:00,49.5,43.6,30.03,ESE,103,0.0,0.0,80,0.00,,,0.00,Wunderground v.1.15,2013-10-03 09:25:00,
2013-10-03 05:30:00,49.6,44.0,30.03,ESE,102,0.0,0.0,81,0.00,,,0.00,Wunderground v.1.15,2013-10-03 09:30:00,
2013-10-03 05:40:00,49.9,43.6,30.03,ESE,102,0.0,0.0,79,0.00,,,0.00,Wunderground v.1.15,2013-10-03 09:40:00,
2013-10-03 05:45:00,49.9,44.0,30.03,ESE,102,0.0,1.0,80,0.00,,,0.00,Wunderground v.1.15,2013-10-03 09:45:00,
2013-10-03 05:50:00,50.3,44.0,30.03,ESE,102,0.0,0.0,79,0.00,,,0.00,Wunderground v.1.15,2013-10-03 09:50:00,
2013-10-03 05:55:00,50.9,44.3,30.03,ESE,102,0.0,0.0,78,0.00,,,0.00,Wunderground v.1.15,2013-10-03 09:55:00,
2013-10-03 06:00:00,51.7,44.7,30.02,East,101,0.0,0.0,77,0.00,,,0.00,Wunderground v.1.15,2013-10-03 10:00:00,
2013-10-03 06:05:00,52.2,44.9,30.03,East,101,0.0,0.0,76,0.00,,,0.00,Wunderground v.1.15,2013-10-03 10:05:00,
2013-10-03 06:15:00,52.7,45.0,30.02,East,101,0.0,0.0,75,0.00,,,0.00,Wunderground v.1.15,2013-10-03 10:15:00,
2013-10-03 06:20:00,52.8,44.7,30.02,East,99,0.0,0.0,74,0.00,,,0.00,Wunderground v.1.15,2013-10-03 10:20:00,
2013-10-03 06:25:00,53.2,45.1,30.02,East,99,0.0,0.0,74,0.00,,,0.00,Wunderground v.1.15,2013-10-03 10:25:00,
2013-10-03 06:30:00,53.4,45.0,30.02,East,94,0.0,1.0,73,0.00,,,0.00,Wunderground v.1.15,2013-10-03 10:30:00,
2013-10-03 06:40:00,53.9,45.4,30.02,East,94,0.0,0.0,73,0.00,,,0.00,Wunderground v.1.15,2013-10-03 10:40:00,
2013-10-03 06:45:00,54.1,45.6,30.02,East,94,0.0,0.0,73,0.00,,,0.00,Wunderground v.1.15,2013-10-03 10:45:00,
2013-10-03 06:50:00,54.2,45.7,30.01,East,94,0.0,0.0,73,0.00,,,0.00,Wunderground v.1.15,2013-10-03 10:50:00,
2013-10-03 06:55:00,54.6,46.1,30.01,East,94,0.0,0.0,73,0.00,,,0.00,Wunderground v.1.15,2013-10-03 10:55:00,
2013-10-03 07:00:00,54.8,46.3,30.01,East,94,0.0,1.0,73,0.00,,,0.00,Wunderground v.1.15,2013-10-03 11:00:00,
2013-10-03 07:05:00,54.9,46.4,30.01,East,94,0.0,1.0,73,0.00,,,0.00,Wunderground v.1.15,2013-10-03 11:05:00,
2013-10-03 07:15:00,55.2,47.1,30.01,East,94,0.0,0.0,74,0.00,,,0.00,Wunderground v.1.15,2013-10-03 11:15:00,
2013-10-03 07:20:00,55.3,47.2,30.00,East,94,0.0,0.0,74,0.00,,,0.00,Wunderground v.1.15,2013-10-03 11:20:00,
2013-10-03 07:25:00,55.0,48.3,30.00,East,94,0.0,1.0,78,0.00,,,0.00,Wunderground v.1.15,2013-10-03 11:25:00,
2013-10-03 07:30:00,54.5,48.8,30.00,East,94,0.0,0.0,81,0.00,,,0.00,Wunderground v.1.15,2013-10-03 11:30:00,
2013-10-03 07:35:00,53.9,48.5,30.00,East,94,0.0,0.0,82,0.00,,,0.00,Wunderground v.1.15,2013-10-03 11:35:00,
2013-10-03 07:45:00,53.5,48.8,30.01,East,94,0.0,0.0,84,0.00,,,0.00,Wunderground v.1.15,2013-10-03 11:45:00,
2013-10-03 07:50:00,53.4,48.4,30.00,East,94,0.0,0.0,83,0.00,,,0.00,Wunderground v.1.15,2013-10-03 11:50:00,
2013-10-03 08:00:00,53.6,48.2,29.99,East,94,0.0,0.0,82,0.00,,,0.00,Wunderground v.1.15,2013-10-03 12:00:00,
2013-10-03 08:05:00,53.7,48.3,30.00,East,94,0.0,0.0,82,0.00,,,0.00,Wunderground v.1.15,2013-10-03 12:05:00,
2013-10-03 08:15:00,54.1,48.4,29.99,East,94,0.0,0.0,81,0.00,,,0.00,Wunderground v.1.15,2013-10-03 12:15:00,
2013-10-03 08:20:00,54.3,48.6,29.99,East,94,0.0,0.0,81,0.00,,,0.00,Wunderground v.1.15,2013-10-03 12:20:00,
2013-10-03 08:25:00,54.5,49.1,29.99,East,94,0.0,0.0,82,0.00,,,0.00,Wunderground v.1.15,2013-10-03 12:25:00,
2013-10-03 08:30:00,54.6,49.2,29.99,East,94,0.0,0.0,82,0.00,,,0.00,Wunderground v.1.15,2013-10-03 12:30:00,
2013-10-03 08:35:00,54.8,49.1,29.98,East,94,0.0,0.0,81,0.00,,,0.00,Wunderground v.1.15,2013-10-03 12:35:00,
2013-10-03 08:40:00,54.9,49.2,29.99,East,94,0.0,0.0,81,0.00,,,0.00,Wunderground v.1.15,2013-10-03 12:40:00,
2013-10-03 08:45:00,55.1,49.4,29.99,East,94,0.0,0.0,81,0.00,,,0.00,Wunderground v.1.15,2013-10-03 12:45:00,
2013-10-03 08:55:00,56.2,50.1,29.99,East,82,0.0,0.0,80,0.00,,,0.00,Wunderground v.1.15,2013-10-03 12:55:00,
2013-10-03 09:00:00,56.6,50.8,29.99,East,82,0.0,0.0,81,0.00,,,0.00,Wunderground v.1.15,2013-10-03 13:00:00,
2013-10-03 09:05:00,57.0,50.5,29.98,ENE,78,0.0,0.0,79,0.00,,,0.00,Wunderground v.1.15,2013-10-03 13:05:00,
2013-10-03 09:15:00,57.7,51.2,29.97,NE,51,0.0,2.0,79,0.00,,,0.00,Wunderground v.1.15,2013-10-03 13:15:00,
2013-10-03 09:25:00,58.1,51.3,29.97,NE,51,0.0,0.0,78,0.00,,,0.00,Wunderground v.1.15,2013-10-03 13:25:00,
2013-10-03 09:30:00,58.2,51.0,29.97,NE,51,0.0,0.0,77,0.00,,,0.00,Wunderground v.1.15,2013-10-03 13:30:00,
2013-10-03 09:35:00,58.3,51.5,29.97,NE,51,0.0,1.0,78,0.00,,,0.00,Wunderground v.1.15,2013-10-03 13:35:00,
2013-10-03 09:40:00,58.4,51.2,29.97,NE,51,0.0,0.0,77,0.00,,,0.00,Wunderground v.1.15,2013-10-03 13:40:00,
2013-10-03 09:45:00,58.6,51.4,29.97,NE,51,0.0,0.0,77,0.00,,,0.00,Wunderground v.1.15,2013-10-03 13:45:00,
2013-10-03 09:50:00,58.9,51.7,29.97,NE,51,0.0,0.0,77,0.00,,,0.00,Wunderground v.1.15,2013-10-03 13:50:00,
2013-10-03 10:00:00,59.1,52.6,29.97,NE,51,0.0,1.0,79,0.00,,,0.00,Wunderground v.1.15,2013-10-03 14:00:00,
2013-10-03 10:05:00,59.4,52.2,29.98,North,9,0.0,1.0,77,0.00,,,0.00,Wunderground v.1.15,2013-10-03 14:05:00,
2013-10-03 10:15:00,59.9,53.0,29.97,ESE,115,0.0,0.0,78,0.00,,,0.00,Wunderground v.1.15,2013-10-03 14:15:00,
2013-10-03 10:20:00,59.8,53.3,29.97,SSW,193,0.0,0.0,79,0.00,,,0.00,Wunderground v.1.15,2013-10-03 14:20:00,
2013-10-03 10:30:00,59.8,53.3,29.96,South,184,0.0,0.0,79,0.00,,,0.00,Wunderground v.1.15,2013-10-03 14:30:00,
2013-10-03 10:35:00,60.0,53.1,29.96,SE,125,0.0,0.0,78,0.00,,,0.00,Wunderground v.1.15,2013-10-03 14:35:00,
2013-10-03 10:40:00,60.4,53.9,29.96,SE,125,0.0,1.0,79,0.00,,,0.00,Wunderground v.1.15,2013-10-03 14:40:00,
2013-10-03 10:45:00,60.9,53.6,29.95,ESE,104,0.0,1.0,77,0.00,,,0.00,Wunderground v.1.15,2013-10-03 14:45:00,
2013-10-03 10:55:00,62.6,54.6,29.95,ESE,111,0.0,2.0,75,0.00,,,0.00,Wunderground v.1.15,2013-10-03 14:55:00,
2013-10-03 11:00:00,63.6,55.2,29.95,NE,45,0.0,0.0,74,0.00,,,0.00,Wunderground v.1.15,2013-10-03 15:00:00,
2013-10-03 11:05:00,64.3,55.8,29.94,South,172,0.0,0.0,74,0.00,,,0.00,Wunderground v.1.15,2013-10-03 15:05:00,
2013-10-03 11:15:00,64.1,55.3,29.93,East,91,0.0,1.0,73,0.00,,,0.00,Wunderground v.1.15,2013-10-03 15:15:00,
2013-10-03 11:20:00,63.9,55.4,29.93,East,91,0.0,0.0,74,0.00,,,0.00,Wunderground v.1.15,2013-10-03 15:20:00,
2013-10-03 11:25:00,63.8,55.7,29.93,East,90,0.0,0.0,75,0.00,,,0.00,Wunderground v.1.15,2013-10-03 15:25:00,
2013-10-03 11:30:00,64.0,55.9,29.93,East,92,0.0,1.0,75,0.00,,,0.00,Wunderground v.1.15,2013-10-03 15:30:00,
2013-10-03 11:40:00,64.1,56.0,29.93,East,92,0.0,0.0,75,0.00,,,0.00,Wunderground v.1.15,2013-10-03 15:40:00,
2013-10-03 11:45:00,64.3,56.9,29.93,East,88,0.0,1.0,77,0.00,,,0.00,Wunderground v.1.15,2013-10-03 15:45:00,
2013-10-03 11:50:00,64.5,56.8,29.93,SE,132,0.0,0.0,76,0.00,,,0.00,Wunderground v.1.15,2013-10-03 15:50:00,
2013-10-03 11:55:00,64.8,56.3,29.93,SE,136,0.0,0.0,74,0.00,,,0.00,Wunderground v.1.15,2013-10-03 15:55:00,
2013-10-03 12:00:00,65.2,56.7,29.93,SE,136,0.0,0.0,74,0.00,,,0.00,Wunderground v.1.15,2013-10-03 16:00:00,
2013-10-03 12:05:00,65.8,57.3,29.93,SE,136,0.0,0.0,74,0.00,,,0.00,Wunderground v.1.15,2013-10-03 16:05:00,
2013-10-03 12:15:00,66.5,58.3,29.93,SSW,199,0.0,0.0,75,0.00,,,0.00,Wunderground v.1.15,2013-10-03 16:15:00,
2013-10-03 12:20:00,66.4,58.2,29.93,SSW,199,0.0,0.0,75,0.00,,,0.00,Wunderground v.1.15,2013-10-03 16:20:00,
2013-10-03 12:25:00,66.5,58.7,29.93,SSW,199,0.0,0.0,76,0.00,,,0.00,Wunderground v.1.15,2013-10-03 16:25:00,
2013-10-03 12:30:00,66.6,58.4,29.92,SSW,199,0.0,0.0,75,0.00,,,0.00,Wunderground v.1.15,2013-10-03 16:30:00,
2013-10-03 12:35:00,66.6,59.5,29.92,SSW,199,0.0,0.0,78,0.00,,,0.00,Wunderground v.1.15,2013-10-03 16:35:00,
2013-10-03 12:45:00,66.0,58.6,29.93,SSW,199,0.0,0.0,77,0.00,,,0.00,Wunderground v.1.15,2013-10-03 16:45:00,
2013-10-03 12:50:00,65.8,58.7,29.92,SSW,199,0.0,0.0,78,0.00,,,0.00,Wunderground v.1.15,2013-10-03 16:50:00,
2013-10-03 12:55:00,65.8,58.7,29.92,SSW,199,0.0,0.0,78,0.00,,,0.00,Wunderground v.1.15,2013-10-03 16:55:00,
2013-10-03 13:00:00,66.0,59.3,29.92,SSW,199,0.0,0.0,79,0.00,,,0.00,Wunderground v.1.15,2013-10-03 17:00:00,
2013-10-03 13:05:00,66.0,58.2,29.93,SSW,199,0.0,0.0,76,0.00,,,0.00,Wunderground v.1.15,2013-10-03 17:05:00,
2013-10-03 13:15:00,65.7,59.4,29.93,SSW,199,0.0,0.0,80,0.00,,,0.00,Wunderground v.1.15,2013-10-03 17:15:00,
2013-10-03 13:20:00,65.8,58.7,29.93,SW,230,0.0,1.0,78,0.00,,,0.00,Wunderground v.1.15,2013-10-03 17:20:00,
2013-10-03 13:25:00,65.5,59.5,29.93,WSW,254,1.0,2.0,81,0.00,,,0.00,Wunderground v.1.15,2013-10-03 17:25:00,
2013-10-03 13:30:00,64.9,59.3,29.94,WSW,257,2.0,5.0,82,0.00,,,0.00,Wunderground v.1.15,2013-10-03 17:30:00,
2013-10-03 13:35:00,64.2,58.9,29.94,WNW,283,3.0,5.0,83,0.00,,,0.00,Wunderground v.1.15,2013-10-03 17:35:00,
2013-10-03 13:40:00,63.6,57.0,29.94,NW,306,3.0,3.0,79,0.00,,,0.00,Wunderground v.1.15,2013-10-03 17:40:00,
2013-10-03 13:50:00,62.9,58.3,29.94,NW,312,2.0,2.0,85,0.00,,,0.01,Wunderground v.1.15,2013-10-03 17:50:00,
2013-10-03 13:55:00,62.0,58.4,29.94,NW,311,2.0,2.0,88,0.13,,,0.02,Wunderground v.1.15,2013-10-03 17:55:00,
2013-10-03 14:05:00,60.7,58.1,29.94,NW,308,1.0,1.0,91,0.10,,,0.04,Wunderground v.1.15,2013-10-03 18:05:00,
2013-10-03 14:15:00,60.0,57.7,29.94,NNW,333,0.0,0.0,92,0.16,,,0.06,Wunderground v.1.15,2013-10-03 18:15:00,
2013-10-03 14:25:00,59.8,58.1,29.94,NNW,333,0.0,1.0,94,0.42,,,0.12,Wunderground v.1.15,2013-10-03 18:25:00,
2013-10-03 14:30:00,59.6,57.9,29.94,WNW,302,1.0,2.0,94,1.58,,,0.18,Wunderground v.1.15,2013-10-03 18:30:00,
2013-10-03 14:35:00,59.4,57.7,29.94,WNW,302,1.0,2.0,94,0.40,,,0.23,Wunderground v.1.15,2013-10-03 18:35:00,
2013-10-03 14:40:00,59.1,57.7,29.94,WNW,302,0.0,0.0,95,0.14,,,0.24,Wunderground v.1.15,2013-10-03 18:40:00,
2013-10-03 14:45:00,59.2,57.8,29.93,WNW,302,0.0,0.0,95,0.12,,,0.25,Wunderground v.1.15,2013-10-03 18:45:00,
2013-10-03 14:55:00,59.3,58.2,29.94,NNW,338,0.0,1.0,96,0.11,,,0.28,Wunderground v.1.15,2013-10-03 18:55:00,
2013-10-03 15:00:00,59.3,58.2,29.94,NNW,338,0.0,0.0,96,0.06,,,0.28,Wunderground v.1.15,2013-10-03 19:00:00,
2013-10-03 15:05:00,59.4,58.3,29.94,NNW,338,0.0,0.0,96,0.04,,,0.28,Wunderground v.1.15,2013-10-03 19:05:00,
2013-10-03 15:15:00,59.4,58.3,29.93,NNW,338,0.0,0.0,96,0.00,,,0.28,Wunderground v.1.15,2013-10-03 19:15:00,
2013-10-03 15:20:00,59.4,58.3,29.93,NNW,338,0.0,0.0,96,0.00,,,0.28,Wunderground v.1.15,2013-10-03 19:20:00,
2013-10-03 15:30:00,59.5,58.4,29.93,NNW,338,0.0,0.0,96,0.00,,,0.29,Wunderground v.1.15,2013-10-03 19:30:00,
2013-10-03 15:35:00,59.5,58.4,29.93,NNW,338,0.0,0.0,96,1.05,,,0.42,Wunderground v.1.15,2013-10-03 19:35:00,
2013-10-03 15:40:00,59.5,58.4,29.93,NNW,339,0.0,0.0,96,0.42,,,0.46,Wunderground v.1.15,2013-10-03 19:40:00,
2013-10-03 15:45:00,59.4,58.3,29.93,NNW,339,0.0,0.0,96,0.22,,,0.48,Wunderground v.1.15,2013-10-03 19:45:00,
2013-10-03 15:50:00,59.4,58.5,29.93,NNW,340,0.0,0.0,97,0.18,,,0.50,Wunderground v.1.15,2013-10-03 19:50:00,
2013-10-03 16:00:00,59.1,58.0,29.93,NNW,340,0.0,0.0,96,0.06,,,0.51,Wunderground v.1.15,2013-10-03 20:00:00,
2013-10-03 16:05:00,59.0,58.2,29.93,NNW,340,0.0,0.0,97,0.05,,,0.51,Wunderground v.1.15,2013-10-03 20:05:00,
2013-10-03 16:15:00,59.0,58.2,29.93,NNW,340,0.0,0.0,97,0.04,,,0.51,Wunderground v.1.15,2013-10-03 20:15:00,
2013-10-03 16:20:00,59.0,58.2,29.93,NNW,340,0.0,0.0,97,0.00,,,0.51,Wunderground v.1.15,2013-10-03 20:20:00,
2013-10-03 16:25:00,59.0,58.2,29.93,NNW,340,0.0,0.0,97,0.00,,,0.51,Wunderground v.1.15,2013-10-03 20:25:00,
2013-10-03 16:35:00,59.0,58.2,29.93,NNW,340,0.0,1.0,97,0.00,,,0.51,Wunderground v.1.15,2013-10-03 20:35:00,
2013-10-03 16:40:00,59.0,58.2,29.93,NNW,340,0.0,0.0,97,0.00,,,0.51,Wunderground v.1.15,2013-10-03 20:40:00,
2013-10-03 16:45:00,59.0,58.2,29.93,NNW,340,0.0,0.0,97,0.00,,,0.51,Wunderground v.1.15,2013-10-03 20:45:00,
2013-10-03 16:50:00,59.0,58.2,29.93,NNW,340,0.0,0.0,97,0.00,,,0.51,Wunderground v.1.15,2013-10-03 20:50:00,
2013-10-03 17:00:00,59.0,58.2,29.93,NNW,340,0.0,0.0,97,0.00,,,0.51,Wunderground v.1.15,2013-10-03 21:00:00,
2013-10-03 17:05:00,59.0,58.2,29.93,NNW,340,0.0,0.0,97,0.00,,,0.51,Wunderground v.1.15,2013-10-03 21:05:00,
2013-10-03 17:15:00,59.0,58.2,29.93,NNW,340,0.0,0.0,97,0.00,,,0.51,Wunderground v.1.15,2013-10-03 21:15:00,
2013-10-03 17:20:00,58.9,58.1,29.93,NNW,340,0.0,0.0,97,0.00,,,0.51,Wunderground v.1.15,2013-10-03 21:20:00,
2013-10-03 17:25:00,59.0,58.2,29.93,NNE,21,0.0,1.0,97,0.00,,,0.51,Wunderground v.1.15,2013-10-03 21:25:00,
2013-10-03 17:30:00,59.0,58.4,29.93,NNE,29,0.0,0.0,98,0.00,,,0.51,Wunderground v.1.15,2013-10-03 21:30:00,
2013-10-03 17:40:00,59.0,58.4,29.93,NNE,29,0.0,0.0,98,0.00,,,0.51,Wunderground v.1.15,2013-10-03 21:40:00,
2013-10-03 17:45:00,59.2,58.6,29.93,NNE,28,0.0,0.0,98,0.00,,,0.51,Wunderground v.1.15,2013-10-03 21:45:00,
2013-10-03 17:50:00,59.2,58.6,29.93,NNE,29,0.0,0.0,98,0.00,,,0.51,Wunderground v.1.15,2013-10-03 21:50:00,
2013-10-03 17:55:00,59.3,58.7,29.93,NNE,29,0.0,0.0,98,0.00,,,0.51,Wunderground v.1.15,2013-10-03 21:55:00,
2013-10-03 18:00:00,59.2,58.6,29.93,NNE,29,0.0,0.0,98,0.00,,,0.51,Wunderground v.1.15,2013-10-03 22:00:00,
2013-10-03 18:05:00,59.2,58.6,29.92,NNE,29,0.0,0.0,98,0.00,,,0.51,Wunderground v.1.15,2013-10-03 22:05:00,
2013-10-03 18:15:00,59.3,58.7,29.93,NNE,29,0.0,0.0,98,0.00,,,0.51,Wunderground v.1.15,2013-10-03 22:15:00,
2013-10-03 18:20:00,59.3,58.7,29.93,NNE,29,0.0,0.0,98,0.00,,,0.51,Wunderground v.1.15,2013-10-03 22:20:00,
2013-10-03 18:25:00,59.4,58.8,29.93,NNE,29,0.0,0.0,98,0.00,,,0.51,Wunderground v.1.15,2013-10-03 22:25:00,
2013-10-03 18:30:00,59.3,58.7,29.93,NNE,28,0.0,0.0,98,0.00,,,0.51,Wunderground v.1.15,2013-10-03 22:30:00,
2013-10-03 18:35:00,59.4,58.8,29.93,NNE,29,0.0,0.0,98,0.00,,,0.51,Wunderground v.1.15,2013-10-03 22:35:00,
2013-10-03 18:45:00,59.3,58.7,29.93,NNE,28,0.0,0.0,98,0.00,,,0.51,Wunderground v.1.15,2013-10-03 22:45:00,
2013-10-03 18:50:00,59.2,58.6,29.93,NNE,28,0.0,0.0,98,0.00,,,0.51,Wunderground v.1.15,2013-10-03 22:50:00,
2013-10-03 18:55:00,59.3,58.7,29.93,NNE,29,0.0,0.0,98,0.00,,,0.51,Wunderground v.1.15,2013-10-03 22:55:00,
2013-10-03 19:00:00,59.2,58.6,29.93,NNE,28,0.0,0.0,98,0.00,,,0.51,Wunderground v.1.15,2013-10-03 23:00:00,
2013-10-03 19:05:00,59.3,58.7,29.93,NNE,28,0.0,0.0,98,0.00,,,0.51,Wunderground v.1.15,2013-10-03 23:05:00,
2013-10-03 19:15:00,59.2,58.6,29.93,NNE,29,0.0,0.0,98,0.00,,,0.51,Wunderground v.1.15,2013-10-03 23:15:00,
2013-10-03 19:20:00,59.1,58.5,29.93,NNE,28,0.0,0.0,98,0.00,,,0.51,Wunderground v.1.15,2013-10-03 23:20:00,
2013-10-03 19:25:00,59.1,58.5,29.93,NNE,29,0.0,0.0,98,0.00,,,0.51,Wunderground v.1.15,2013-10-03 23:25:00,
2013-10-03 19:30:00,59.0,58.4,29.93,NNE,28,0.0,0.0,98,0.00,,,0.51,Wunderground v.1.15,2013-10-03 23:30:00,
2013-10-03 19:35:00,59.0,58.4,29.93,NNE,28,0.0,0.0,98,0.00,,,0.51,Wunderground v.1.15,2013-10-03 23:35:00,
2013-10-03 19:40:00,59.1,58.5,29.93,NNE,29,0.0,0.0,98,0.00,,,0.51,Wunderground v.1.15,2013-10-03 23:40:00,
2013-10-03 19:50:00,59.0,58.4,29.93,NNE,28,0.0,0.0,98,0.00,,,0.52,Wunderground v.1.15,2013-10-03 23:50:00,
2013-10-03 19:55:00,59.0,58.4,29.93,NNE,28,0.0,0.0,98,0.00,,,0.52,Wunderground v.1.15,2013-10-03 23:55:00,
2013-10-03 20:00:00,59.0,58.4,29.93,NNE,28,0.0,0.0,98,0.07,,,0.53,Wunderground v.1.15,2013-10-04 00:00:00,
2013-10-03 20:10:00,59.0,58.4,29.92,NNE,29,0.0,0.0,98,0.17,,,0.57,Wunderground v.1.15,2013-10-04 00:10:00,
2013-10-03 20:15:00,59.0,58.4,29.92,NNE,29,0.0,1.0,98,1.92,,,0.63,Wunderground v.1.15,2013-10-04 00:15:00,
2013-10-03 20:20:00,59.0,58.4,29.92,NNE,29,0.0,0.0,98,0.29,,,0.73,Wunderground v.1.15,2013-10-04 00:20:00,
2013-10-03 20:30:00,59.0,58.4,29.92,NNE,29,0.0,0.0,98,0.05,,,0.73,Wunderground v.1.15,2013-10-04 00:30:00,
2013-10-03 20:35:00,59.0,58.4,29.93,NNE,29,0.0,0.0,98,0.04,,,0.73,Wunderground v.1.15,2013-10-04 00:35:00,
2013-10-03 20:40:00,59.0,58.4,29.93,NNE,29,0.0,1.0,98,0.00,,,0.73,Wunderground v.1.15,2013-10-04 00:40:00,
2013-10-03 20:45:00,59.0,58.4,29.93,NNE,29,0.0,1.0,98,0.00,,,0.73,Wunderground v.1.15,2013-10-04 00:45:00,
2013-10-03 20:50:00,59.1,58.5,29.93,NNE,29,0.0,0.0,98,0.00,,,0.73,Wunderground v.1.15,2013-10-04 00:50:00,
2013-10-03 21:00:00,59.2,58.6,29.93,NNE,29,0.0,0.0,98,0.00,,,0.73,Wunderground v.1.15,2013-10-04 01:00:00,
2013-10-03 21:05:00,59.2,58.6,29.93,NNE,29,0.0,0.0,98,0.00,,,0.73,Wunderground v.1.15,2013-10-04 01:05:00,
2013-10-03 21:15:00,59.3,58.7,29.93,NNE,29,0.0,0.0,98,0.00,,,0.74,Wunderground v.1.15,2013-10-04 01:15:00,
2013-10-03 21:20:00,59.3,58.7,29.93,NNE,29,0.0,0.0,98,0.00,,,0.74,Wunderground v.1.15,2013-10-04 01:20:00,
2013-10-03 21:30:00,59.4,58.8,29.93,NNE,29,0.0,0.0,98,0.00,,,0.74,Wunderground v.1.15,2013-10-04 01:30:00,
2013-10-03 21:35:00,59.4,58.8,29.94,NNE,29,0.0,0.0,98,0.00,,,0.74,Wunderground v.1.15,2013-10-04 01:35:00,
2013-10-03 21:40:00,59.4,58.8,29.93,NNE,29,0.0,0.0,98,0.00,,,0.74,Wunderground v.1.15,2013-10-04 01:40:00,
2013-10-03 21:45:00,59.5,58.9,29.93,NNE,29,0.0,0.0,98,0.00,,,0.74,Wunderground v.1.15,2013-10-04 01:45:00,
2013-10-03 21:50:00,59.5,58.9,29.93,NNE,29,0.0,0.0,98,0.00,,,0.74,Wunderground v.1.15,2013-10-04 01:50:00,
2013-10-03 21:55:00,59.5,58.9,29.93,NNE,29,0.0,0.0,98,0.00,,,0.74,Wunderground v.1.15,2013-10-04 01:55:00,
2013-10-03 22:05:00,59.6,59.0,29.92,NNE,29,0.0,0.0,98,0.00,,,0.74,Wunderground v.1.15,2013-10-04 02:05:00,
2013-10-03 22:15:00,59.6,59.0,29.93,NNE,29,0.0,0.0,98,0.00,,,0.75,Wunderground v.1.15,2013-10-04 02:15:00,
2013-10-03 22:20:00,59.6,59.0,29.92,NNE,29,0.0,0.0,98,0.06,,,0.76,Wunderground v.1.15,2013-10-04 02:20:00,
2013-10-03 22:25:00,59.6,59.0,29.92,NNE,29,0.0,0.0,98,0.06,,,0.76,Wunderground v.1.15,2013-10-04 02:25:00,
2013-10-03 22:35:00,59.7,59.1,29.92,NNE,29,0.0,0.0,98,0.00,,,0.76,Wunderground v.1.15,2013-10-04 02:35:00,
2013-10-03 22:40:00,59.6,59.0,29.92,NNE,29,0.0,0.0,98,0.00,,,0.76,Wunderground v.1.15,2013-10-04 02:40:00,
2013-10-03 22:45:00,59.7,59.1,29.93,NNE,29,0.0,0.0,98,0.00,,,0.76,Wunderground v.1.15,2013-10-04 02:45:00,
2013-10-03 22:50:00,59.7,59.1,29.93,NNE,29,0.0,0.0,98,0.00,,,0.76,Wunderground v.1.15,2013-10-04 02:50:00,
2013-10-03 23:00:00,59.7,59.1,29.92,NNE,29,0.0,0.0,98,0.00,,,0.77,Wunderground v.1.15,2013-10-04 03:00:00,
2013-10-03 23:05:00,59.7,59.1,29.93,NNE,29,0.0,0.0,98,0.32,,,0.79,Wunderground v.1.15,2013-10-04 03:05:00,
2013-10-03 23:15:00,59.7,59.1,29.93,ENE,59,0.0,0.0,98,2.37,,,1.01,Wunderground v.1.15,2013-10-04 03:15:00,
2013-10-03 23:20:00,59.7,59.7,29.93,ENE,59,0.0,0.0,100,2.09,,,1.12,Wunderground v.1.15,2013-10-04 03:20:00,
2013-10-03 23:25:00,59.8,59.5,29.93,ENE,59,0.0,0.0,99,0.84,,,1.21,Wunderground v.1.15,2013-10-04 03:25:00,
2013-10-03 23:30:00,60.0,59.7,29.92,ENE,59,0.0,0.0,99,0.88,,,1.29,Wunderground v.1.15,2013-10-04 03:30:00,
2013-10-03 23:35:00,60.0,59.7,29.93,ENE,59,0.0,1.0,99,0.28,,,1.34,Wunderground v.1.15,2013-10-04 03:35:00,
2013-10-03 23:45:00,60.1,59.8,29.93,ENE,59,0.0,0.0,99,0.66,,,1.38,Wunderground v.1.15,2013-10-04 03:45:00,
2013-10-03 23:50:00,60.1,59.8,29.92,ENE,59,0.0,0.0,99,0.18,,,1.40,Wunderground v.1.15,2013-10-04 03:50:00,
2013-10-03 23:55:00,60.1,59.8,29.92,ENE,59,0.0,0.0,99,0.17,,,1.42,Wunderground v.1.15,2013-10-04 03:55:00,